Weather History for KNFE - March, 2014

Change the Weather History Date:

Monday, March 3, 2014

  Actual Average (KORF) Record (KORF)
Temperature  
Mean Temperature 37 °F 46 °F  
Max Temperature 48 °F 54 °F 77 °F (1974)
Min Temperature 25 °F 37 °F 16 °F (1925)
Degree Days  
Heating Degree Days 28 19  
Month to date heating degree days 59  
Since 1 July heating degree days 2628  
Cooling Degree Days 0 0  
Month to date cooling degree days 0  
Year to date cooling degree days 1  
Moisture  
Dew Point 26 °F    
Average Humidity 74    
Maximum Humidity 82    
Minimum Humidity 58    
Precipitation  
Precipitation 0.18 in 0.11 in 1.38 in (1889)
Month to date precipitation 0.35  
Year to date precipitation 6.87  
Snow  
Snow 0.00 in 0.10 in 2.40 in (1916)
Month to date snowfall 0.1  
Since 1 July snowfall 5.7  
Snow Depth -    
Sea Level Pressure  
Sea Level Pressure 30.11 in    
Wind  
Wind Speed 13 mph (NNE)    
Max Wind Speed 21 mph    
Max Gust Speed 30 mph    
Visibility 4 miles    
Events Rain , Snow    
T = Trace of Precipitation, MM = Missing Value Source: NWS Daily Summary

Daily Weather History Graph

Daily Weather History Graph

Search for Another Location

Airport or City:

Trip Planner

Search our weather history database for the weather conditions in past years. The results will help you decide how hot, cold, wet, or windy it might be!

Date:

Astronomy

Mar. 03, 2014 Rise Set
Actual Time 6:32 AM EST 6:00 PM EST
Civil Twilight 6:06 AM EST 6:26 PM EST
Nautical Twilight 5:36 AM EST 6:56 PM EST
Astronomical Twilight 5:06 AM EST 7:26 PM EST
Moon 7:44 AM EST (3/3) 8:55 PM EST (3/3)
Length of Visible Light 12h 20m
Length of Day
11h 28m
Waxing Crescent, 8% of the Moon is Illuminated
Mar 3
Waxing Crescent
Mar 8
First Quarter
Mar 16
Full
Mar 23
Last Quarter
Mar 30
New

Hourly Weather History & Observations

Time (EST) Temp. Windchill Dew Point Humidity Pressure Visibility Wind Dir Wind Speed Gust Speed Precip Events Conditions
12:56 AM 48.0 °F - 37.0 °F 66% 29.93 in 10.0 mi North 6.9 mph - N/A   Clear
1:56 AM 46.0 °F 43.1 °F 37.0 °F 71% 29.92 in 10.0 mi North 5.8 mph - N/A   Clear
2:56 AM 46.0 °F 41.9 °F 37.0 °F 71% 29.90 in 9.0 mi North 8.1 mph - N/A   Clear
3:51 AM 44.6 °F 39.2 °F 37.4 °F 76% 29.90 in 7.0 mi North 10.4 mph - N/A   Scattered Clouds
3:56 AM 45.0 °F 39.7 °F 37.9 °F 76% 29.91 in 6.0 mi North 10.4 mph - N/A   Haze
4:24 AM 45.0 °F 40.1 °F 37.0 °F 74% 29.91 in 6.0 mi North 9.2 mph - N/A   Haze
4:32 AM 45.0 °F 39.3 °F 37.0 °F 74% 29.92 in 5.0 mi North 11.5 mph - N/A   Haze
4:56 AM 44.1 °F 39.5 °F 37.0 °F 76% 29.94 in 4.0 mi North 8.1 mph - N/A   Haze
5:56 AM 44.1 °F 37.7 °F 37.0 °F 76% 29.97 in 4.0 mi North 12.7 mph - N/A   Haze
6:56 AM 43.0 °F 35.7 °F 36.0 °F 76% 29.99 in 4.0 mi NNE 15.0 mph 20.7 mph N/A   Haze
7:41 AM 43.0 °F 36.0 °F 35.1 °F 74% 30.02 in 4.0 mi NNE 13.8 mph 19.6 mph N/A   Haze
7:56 AM 43.0 °F 36.0 °F 35.1 °F 74% 30.04 in 4.0 mi NNE 13.8 mph 20.7 mph N/A   Haze
8:56 AM 41.0 °F 33.1 °F 33.1 °F 73% 30.05 in 6.0 mi NNE 15.0 mph 26.5 mph N/A   Haze
9:56 AM 39.0 °F 31.4 °F 32.0 °F 76% 30.08 in 6.0 mi NNE 12.7 mph 26.5 mph N/A   Haze
10:56 AM 37.9 °F 28.9 °F 30.9 °F 76% 30.09 in 4.0 mi NNE 16.1 mph 20.7 mph 0.00 in Rain Light Rain
11:36 AM 36.0 °F 26.7 °F 30.0 °F 79% 30.08 in 2.5 mi NNE 15.0 mph 21.9 mph 0.00 in Snow Light Snow
11:44 AM 36.0 °F 26.0 °F 30.0 °F 79% 30.09 in 4.0 mi NNE 17.3 mph 24.2 mph 0.00 in   Haze
11:56 AM 36.0 °F 28.5 °F 30.0 °F 79% 30.09 in 5.0 mi NNE 10.4 mph - 0.00 in   Haze
12:03 PM 36.0 °F 25.6 °F 28.9 °F 76% 30.08 in 4.0 mi North 18.4 mph 26.5 mph N/A   Haze
12:41 PM 35.1 °F 25.5 °F 28.0 °F 76% 30.07 in 6.0 mi NNE 15.0 mph 20.7 mph 0.00 in Rain Light Freezing Rain
12:56 PM 34.0 °F 24.2 °F 27.0 °F 75% 30.06 in 5.0 mi NNE 15.0 mph 20.7 mph 0.02 in Rain Light Freezing Rain
1:08 PM 34.0 °F 24.2 °F 28.0 °F 79% 30.06 in 1.8 mi North 15.0 mph 21.9 mph 0.03 in Rain Light Freezing Rain
1:15 PM 33.1 °F 23.0 °F 28.0 °F 82% 30.07 in 0.8 mi North 15.0 mph 21.9 mph 0.04 in Snow Light Snow
1:24 PM 33.1 °F 23.9 °F 28.0 °F 82% 30.08 in 0.5 mi North 12.7 mph 23.0 mph 0.05 in Rain Rain
1:43 PM 32.0 °F 21.6 °F 25.0 °F 75% 30.09 in 1.0 mi North 15.0 mph 28.8 mph 0.05 in Snow Light Snow
1:52 PM 32.0 °F 20.8 °F 24.8 °F 75% 30.08 in 1.2 mi North 17.3 mph 28.8 mph 0.06 in Snow Light Snow
1:56 PM 32.0 °F 21.6 °F 25.0 °F 75% 30.08 in 1.5 mi North 15.0 mph 23.0 mph 0.06 in   Overcast
2:09 PM 32.0 °F 21.6 °F 25.0 °F 75% 30.08 in 3.0 mi North 15.0 mph 23.0 mph 0.00 in Snow Light Snow
2:23 PM 32.0 °F 20.5 °F 24.1 °F 73% 30.08 in 2.0 mi North 18.4 mph 28.8 mph 0.00 in   Overcast
2:41 PM 32.0 °F 21.6 °F 24.1 °F 73% 30.09 in 1.5 mi North 15.0 mph 23.0 mph 0.00 in Snow Light Snow
2:45 PM 32.0 °F 20.1 °F 24.1 °F 73% 30.09 in 3.0 mi North 19.6 mph 27.6 mph 0.00 in Snow Light Snow
2:56 PM 32.0 °F 20.8 °F 24.1 °F 73% 30.10 in 5.0 mi North 17.3 mph 25.3 mph 0.00 in   Overcast
3:36 PM 30.9 °F 18.4 °F 24.1 °F 76% 30.10 in 2.5 mi North 20.7 mph 29.9 mph 0.00 in Rain Light Freezing Rain
3:44 PM 30.9 °F 19.8 °F 24.1 °F 76% 30.10 in 1.2 mi North 16.1 mph 27.6 mph 0.01 in Rain Light Freezing Rain
3:47 PM 30.9 °F 19.8 °F 24.1 °F 76% 30.11 in 1.2 mi North 16.1 mph 27.6 mph 0.01 in Snow Light Snow
3:56 PM 30.9 °F 19.4 °F 24.1 °F 76% 30.12 in 1.8 mi North 17.3 mph 25.3 mph 0.01 in Snow Light Snow
4:56 PM 30.9 °F 20.2 °F 24.1 °F 76% 30.14 in 2.0 mi North 15.0 mph - 0.02 in Snow Light Snow
5:09 PM 30.0 °F 18.7 °F 23.0 °F 75% 30.14 in 1.5 mi North 16.1 mph 27.6 mph 0.00 in Snow Light Snow
5:17 PM 30.0 °F 19.1 °F 23.0 °F 75% 30.14 in 3.0 mi North 15.0 mph 20.7 mph 0.00 in   Overcast
5:56 PM 28.9 °F 16.5 °F 21.9 °F 75% 30.18 in 2.0 mi North 18.4 mph 24.2 mph 0.03 in Snow Light Snow
6:03 PM 28.9 °F 18.2 °F 21.9 °F 75% 30.18 in 1.8 mi NNE 13.8 mph 20.7 mph 0.01 in Snow Light Snow
6:10 PM 28.9 °F 18.6 °F 23.0 °F 78% 30.19 in 2.0 mi NNE 12.7 mph 21.9 mph 0.01 in Snow Light Snow
6:15 PM 28.9 °F 18.2 °F 21.9 °F 75% 30.18 in 1.5 mi NNE 13.8 mph - 0.02 in Snow Light Snow
6:46 PM 28.9 °F 19.2 °F 21.9 °F 75% 30.20 in 2.5 mi NNE 11.5 mph 20.7 mph 0.03 in Snow Light Snow
6:54 PM 28.9 °F 18.6 °F 21.9 °F 75% 30.21 in 4.0 mi North 12.7 mph 23.0 mph 0.03 in Snow Light Snow
7:22 PM 28.9 °F 18.2 °F 21.9 °F 75% 30.23 in 2.5 mi North 13.8 mph 21.9 mph 0.01 in Snow Light Snow
7:29 PM 28.9 °F 18.2 °F 21.0 °F 72% 30.23 in 4.0 mi North 13.8 mph 23.0 mph 0.01 in Snow Light Snow
7:56 PM 28.0 °F 18.1 °F 21.0 °F 75% 30.23 in 9.0 mi North 11.5 mph 24.2 mph 0.01 in   Mostly Cloudy
8:18 PM 28.0 °F 14.9 °F 19.9 °F 72% 30.25 in 10.0 mi NNE 19.6 mph 29.9 mph N/A   Overcast
8:34 PM 28.0 °F 15.7 °F 19.9 °F 72% 30.26 in 9.0 mi North 17.3 mph 25.3 mph N/A   Overcast
8:54 PM 26.6 °F 15.2 °F 19.4 °F 74% 30.26 in 1.8 mi North 13.8 mph 26.5 mph 0.00 in Snow Light Snow
8:56 PM 27.0 °F 14.7 °F 19.9 °F 75% 30.27 in 1.2 mi North 16.1 mph 26.5 mph 0.00 in Snow Light Snow
9:02 PM 27.0 °F 15.6 °F 19.9 °F 75% 30.27 in 0.8 mi North 13.8 mph 24.2 mph 0.00 in Snow Light Snow
9:09 PM 27.0 °F 13.2 °F 19.9 °F 75% 30.27 in 0.8 mi North 20.7 mph 25.3 mph 0.00 in Snow Light Snow
9:20 PM 27.0 °F 14.7 °F 19.0 °F 72% 30.28 in 2.0 mi North 16.1 mph 23.0 mph 0.00 in Snow Light Snow
9:28 PM 27.0 °F 15.6 °F 19.0 °F 72% 30.28 in 5.0 mi North 13.8 mph 23.0 mph 0.00 in Snow Light Snow
9:56 PM 28.0 °F 19.3 °F 18.0 °F 66% 30.30 in 10.0 mi North 9.2 mph - 0.00 in   Overcast
10:56 PM 26.1 °F 13.6 °F 12.9 °F 58% 30.28 in 10.0 mi NNE 16.1 mph 23.0 mph N/A   Partly Cloudy
11:56 PM 25.0 °F 12.6 °F 12.0 °F 58% 30.30 in 10.0 mi North 15.0 mph 19.6 mph N/A   Clear